GFSFLT2_prec_cthk_114.txt.gz
RH
27 29 30 27 27 28 27 27 31 34 36 37 47 50 62 73 77 87 69 59 65 46 39 38 37 27 23 20 27 29 29 30
28 28 32 30 28 31 31 30 31 32 32 34 42 53 61 70 77 90 74 77 69 48 35 34 31 28 32 34 35 37 37 38
28 29 31 31 31 30 34 35 34 35 36 39 42 51 57 66 79 88 81 81 71 52 35 31 33 37 39 37 39 41 45 44
30 30 31 32 33 32 33 37 38 41 43 43 44 52 61 66 77 91 86 87 66 53 32 32 38 40 48 44 42 38 41 37
31 29 32 35 33 35 36 38 39 47 51 53 51 63 74 77 80 80 81 81 67 51 41 39 36 44 51 45 55 54 45 43
33 31 32 38 38 38 40 40 42 49 50 56 63 77 88 90 85 89 82 82 64 56 43 41 46 53 53 47 56 47 31 32
34 32 35 37 41 42 42 42 44 51 52 60 72 92 94 94 93 91 90 84 63 57 45 45 46 46 50 50 54 50 38 37
37 36 37 38 44 47 43 42 45 50 56 68 79 92 96 96 95 94 93 86 74 52 44 47 46 54 54 58 65 49 49 43
38 39 39 42 47 52 44 39 47 51 65 80 85 94 98 98 98 93 89 87 70 47 47 49 53 61 60 56 47 47 50 46
36 38 41 43 51 53 42 36 49 61 73 81 88 90 98 98 98 95 92 87 59 50 50 50 59 65 59 62 48 48 50 51
35 37 41 42 53 52 39 35 54 62 72 79 83 94 98 98 98 98 94 82 54 51 52 52 63 58 59 58 53 50 56 56
37 38 42 44 54 50 36 39 55 63 71 75 84 99 98 98 98 96 88 89 57 49 52 62 63 59 59 58 61 58 61 60
39 40 43 46 52 47 34 39 53 64 71 73 84 97 97 99 97 96 87 86 59 55 65 69 69 62 58 65 69 65 63 65
40 44 43 48 53 44 36 39 48 64 67 72 81 97 96 95 95 97 87 82 64 58 64 67 63 55 60 65 76 74 66 67
43 42 44 50 55 44 36 39 46 60 67 70 74 97 96 97 98 98 90 71 57 42 45 49 52 59 57 60 68 79 71 68
47 47 46 53 55 42 36 37 42 54 64 72 75 84 97 98 97 91 81 77 62 52 54 53 51 58 61 67 70 70 69 72
46 48 50 55 55 42 36 37 41 51 61 70 78 82 92 96 93 91 87 86 72 53 52 54 57 58 59 64 67 67 71 74
49 50 53 58 55 42 35 36 41 48 58 64 78 85 87 93 95 91 88 84 77 59 54 57 61 63 66 70 71 75 76 74
52 54 52 57 53 40 35 37 41 49 54 63 74 85 88 89 90 93 92 88 86 79 64 64 65 71 75 74 81 84 85 85
53 55 55 54 52 38 35 38 42 47 55 65 77 83 87 91 93 91 93 91 91 91 82 75 77 79 81 86 90 93 92 90

GFSFLT2_prec_cthk_117.txt.gz
RH
27 26 24 23 22 27 31 34 32 36 35 39 41 44 48 53 63 80 83 80 62 67 65 41 40 43 36 32 28 25 24 28
28 29 29 26 24 24 30 34 38 37 36 36 40 44 44 53 60 68 75 78 64 73 51 38 44 40 36 27 27 28 29 28
29 31 32 31 29 27 27 32 37 42 42 40 41 45 48 48 55 63 72 77 79 72 60 40 41 36 29 28 38 34 33 34
27 31 34 35 35 33 29 30 36 42 44 44 47 51 52 52 61 66 74 79 84 76 68 48 35 33 39 37 44 36 40 41
28 31 35 38 38 38 34 31 37 43 48 50 52 59 55 58 67 77 76 80 81 87 66 46 39 39 45 41 44 40 35 28
30 34 36 38 40 43 41 37 41 44 50 57 64 65 64 69 75 82 80 81 82 84 60 46 41 43 49 50 47 49 45 41
30 36 38 40 42 42 46 46 46 48 52 60 68 68 73 77 88 89 92 85 84 75 55 46 48 47 55 52 54 49 46 48
27 35 39 41 44 44 46 49 51 50 50 61 69 69 78 86 92 96 93 92 87 76 56 51 51 54 58 58 53 54 45 37
25 35 36 40 44 46 48 51 53 51 48 60 69 77 86 93 93 96 96 94 89 78 66 52 53 56 56 56 57 62 59 41
24 34 33 38 43 47 48 51 54 49 45 55 69 81 83 86 93 99 97 94 92 77 71 51 54 54 55 57 62 66 61 46
24 33 35 37 43 49 49 51 52 44 39 54 68 74 78 85 95 99 99 95 92 84 65 44 50 55 61 64 64 62 54 48
26 35 37 38 44 48 51 52 52 39 41 54 66 75 80 89 97 98 99 97 94 86 61 48 50 55 68 66 68 65 58 52
28 35 40 43 46 48 50 52 49 38 42 55 67 73 79 96 99 97 99 99 95 89 63 51 53 62 69 70 71 69 60 56
32 38 44 46 49 49 50 54 42 37 44 56 68 74 85 97 99 97 98 96 98 89 62 58 57 59 68 67 70 67 61 61
32 41 49 50 52 54 54 53 41 37 43 55 66 73 86 97 99 97 98 97 95 85 60 56 50 64 65 63 67 67 67 66
34 43 50 51 54 54 56 50 40 38 43 54 61 71 82 96 98 98 98 97 92 85 59 56 53 66 68 69 61 59 68 78
38 47 51 53 53 52 54 48 40 38 45 53 60 68 80 88 97 96 98 98 89 86 62 65 70 69 69 60 58 61 64 70
41 47 55 58 57 54 52 45 38 38 45 51 60 69 82 90 96 99 98 94 88 87 69 55 56 57 57 58 59 59 62 71
45 50 56 58 60 59 55 44 36 38 44 50 60 70 79 87 90 96 98 98 91 87 71 55 51 50 52 56 60 63 64 68
54 57 59 59 61 63 61 45 36 40 44 50 62 72 85 87 91 91 95 95 95 94 85 61 55 56 59 61 62 67 70 72

GFSFLT2_prec_cthk_123.txt.gz
RH
18 20 22 23 24 25 25 25 26 28 33 38 37 39 44 45 46 47 43 57 66 79 77 71 70 63 43 43 51 38 49 58
19 19 21 23 25 26 29 29 29 30 31 35 37 39 41 48 45 47 50 52 64 72 77 68 74 66 45 41 50 41 52 57
20 20 21 23 24 26 30 33 33 32 34 36 39 44 45 49 50 51 53 56 62 65 70 69 65 63 50 42 39 44 59 56
24 22 22 23 24 26 30 33 36 34 35 38 41 51 53 53 64 60 60 59 61 74 85 84 67 52 52 41 32 59 52 54
25 27 24 24 25 26 30 37 39 42 44 46 47 55 69 63 71 73 63 65 73 82 84 93 81 52 50 38 44 51 51 54
31 26 28 26 30 26 28 35 41 46 50 50 52 52 59 60 67 73 68 67 72 79 86 89 91 67 51 45 52 53 50 54
31 28 27 29 30 26 28 36 39 46 52 54 59 55 50 57 75 77 75 77 76 86 89 89 94 77 55 48 53 54 50 53
29 27 27 26 27 24 27 33 41 44 51 54 55 55 55 53 77 78 83 88 85 93 90 93 97 89 64 49 57 56 51 54
27 28 28 27 24 23 26 31 40 45 50 54 54 53 59 54 70 83 85 92 93 92 97 91 92 94 74 55 59 57 53 54
25 25 27 27 28 23 24 29 36 46 50 53 53 54 58 56 54 77 84 90 97 97 96 98 96 83 66 60 59 54 55 56
21 21 22 23 25 28 26 27 36 44 50 52 51 55 56 52 46 60 79 84 88 97 96 96 92 82 71 72 64 58 58 57
17 15 13 17 18 22 30 30 37 46 49 53 54 54 53 51 44 54 71 76 87 95 97 95 94 78 80 78 71 66 63 59
17 12 10 11 13 17 26 31 39 47 49 56 54 52 50 46 41 50 64 71 83 91 98 97 92 82 75 84 75 72 64 61
21 16 14 14 19 24 30 34 42 49 52 55 58 55 47 37 39 49 63 74 77 87 98 98 94 86 76 77 81 75 67 62
22 22 23 22 24 27 31 40 47 54 55 57 58 55 46 35 40 51 62 76 85 93 98 98 94 88 88 72 69 64 62 62
22 26 26 27 26 32 34 42 52 54 58 60 59 56 40 38 41 52 62 78 91 96 99 97 95 90 88 80 64 52 60 65
25 27 32 32 29 37 41 50 57 62 64 63 61 51 40 39 44 54 64 82 94 98 98 99 94 93 85 84 62 58 58 63
28 30 31 31 30 35 44 51 60 66 69 65 62 49 38 38 44 52 67 84 94 99 99 98 93 96 88 77 60 57 61 66
31 32 33 33 32 38 48 54 63 71 67 66 58 48 35 36 42 51 68 82 98 97 99 99 96 96 91 86 64 59 62 70
26 32 33 33 36 38 50 58 66 72 71 68 61 49 35 36 42 54 71 82 95 98 99 99 98 96 94 91 73 64 66 70

GFSFLT2_prec_cthk_126.txt.gz
RH
16 16 17 18 18 19 20 20 21 22 22 26 34 42 45 48 42 41 43 40 43 47 72 79 76 66 56 39 42 55 57 71
16 16 17 18 18 20 21 22 23 24 24 25 29 33 40 44 43 43 42 43 49 48 68 78 82 84 69 46 38 48 57 69
18 17 17 17 19 20 22 23 25 26 26 26 30 34 37 46 51 50 51 53 54 58 73 76 79 85 82 54 36 45 57 61
20 18 19 19 18 20 21 23 25 28 29 29 31 37 42 48 56 66 66 64 63 65 70 79 87 85 83 54 36 43 58 56
20 20 20 20 19 20 21 23 25 28 32 35 36 40 47 54 61 60 61 70 72 71 76 84 89 77 69 51 39 40 50 49
24 22 22 22 21 21 21 22 24 26 31 37 42 45 48 51 49 50 65 81 72 65 77 83 88 89 62 49 43 50 45 51
32 27 24 24 25 21 21 23 24 26 30 35 42 49 49 51 52 51 69 83 82 80 81 84 88 87 83 51 44 48 49 45
33 32 27 26 24 24 22 23 26 29 32 35 42 48 50 49 55 56 68 83 88 86 84 88 91 92 98 58 52 52 50 44
28 30 28 28 26 27 25 24 29 28 33 37 42 50 53 50 54 58 60 83 91 92 95 95 92 96 95 71 60 58 52 44
32 30 26 26 24 25 24 22 26 32 32 39 42 50 54 53 56 58 54 64 84 92 94 93 95 96 96 89 79 57 47 49
32 30 28 27 24 23 22 23 22 25 35 39 46 52 53 54 58 59 54 52 68 85 95 93 96 98 96 93 82 60 50 52
23 25 25 25 26 26 23 22 23 22 28 40 45 53 53 54 56 59 56 50 58 77 87 91 92 98 97 85 83 80 58 57
23 20 19 17 19 22 22 23 15 20 23 37 46 55 54 55 54 57 55 46 53 76 81 93 88 97 98 84 88 84 62 59
26 22 20 17 15 13 16 18 23 19 26 38 50 57 57 55 55 53 49 45 51 68 76 91 91 93 98 84 92 90 74 69
27 25 21 22 20 21 23 25 29 28 34 43 50 59 60 60 56 53 43 39 50 59 73 84 87 90 98 84 89 88 81 77
27 27 28 29 25 27 28 25 28 30 37 46 56 61 59 61 57 52 39 42 46 57 73 80 94 93 98 93 84 82 80 77
23 24 31 34 29 30 34 32 34 39 43 48 54 63 63 62 59 50 38 40 44 56 68 81 95 96 94 97 91 80 75 69
25 25 24 25 28 32 35 36 40 42 45 49 55 64 65 65 61 45 39 44 50 60 70 87 96 97 97 97 94 87 77 67
22 25 29 27 28 34 37 38 42 45 46 51 62 63 66 67 56 48 43 47 54 65 79 91 99 96 96 94 95 90 84 69
24 21 29 36 32 34 41 39 45 48 56 58 65 65 68 63 57 51 46 48 56 69 86 93 99 99 96 95 94 89 91 75

GFSFLT2_prec_cthk_129.txt.gz
RH
15 15 15 16 16 15 15 16 18 18 19 22 27 32 36 41 41 38 39 40 40 41 50 58 68 78 62 59 67 64 55 71
17 16 16 16 17 17 16 16 19 19 20 21 25 28 32 35 39 41 42 46 49 51 51 61 82 81 70 60 69 74 59 62
19 18 17 17 17 18 18 18 19 21 21 22 24 27 32 35 41 48 53 57 61 62 57 63 85 88 85 69 77 74 56 53
16 18 18 17 17 17 18 19 19 22 23 23 25 28 34 39 47 54 62 57 60 70 72 65 69 83 86 77 75 67 55 51
17 17 18 18 18 18 18 19 19 21 23 26 28 30 35 40 47 47 46 46 61 74 71 70 78 86 88 77 62 61 53 51
21 19 18 19 19 19 19 19 20 20 22 25 28 31 36 40 47 48 48 48 63 78 75 66 75 84 75 69 60 55 51 49
26 24 23 22 20 20 21 20 20 21 23 25 27 30 34 40 47 49 51 54 67 82 78 74 77 86 85 75 58 51 48 44
28 30 29 26 25 22 21 23 21 22 23 25 26 30 34 39 47 51 52 55 58 82 92 88 86 87 89 91 74 56 50 44
27 33 34 29 24 27 26 25 24 23 25 27 28 29 36 41 49 52 55 56 52 66 89 88 91 90 97 93 86 64 53 50
26 29 31 29 25 27 26 24 25 25 32 30 31 33 37 43 51 55 57 60 56 54 75 90 89 93 95 90 87 72 63 45
30 32 33 35 36 32 27 26 24 26 32 35 33 34 42 45 53 57 60 61 59 52 58 77 88 93 95 97 91 85 79 63
35 40 42 40 34 35 35 31 27 26 27 31 37 37 43 51 56 57 59 60 63 54 56 71 84 90 94 98 93 93 91 65
36 35 33 31 31 35 37 30 27 22 24 32 33 38 47 52 59 60 58 63 57 56 51 67 77 80 90 98 97 96 92 76
33 31 30 32 32 28 25 25 19 15 18 21 30 33 48 53 61 62 59 60 59 53 49 59 73 79 84 95 98 97 92 88
28 27 27 26 25 21 21 23 24 22 22 23 28 32 42 55 61 63 62 62 58 49 48 52 67 74 82 87 86 92 91 90
28 30 22 21 22 25 28 25 26 24 21 25 38 40 45 53 61 65 68 66 60 47 44 52 62 71 84 85 84 85 90 95
36 23 24 27 31 32 32 32 30 31 28 37 46 43 49 51 66 66 69 66 58 46 42 54 57 69 78 86 89 90 89 88
32 24 25 27 30 35 44 40 36 36 38 43 48 48 48 52 63 66 68 65 57 40 45 50 60 74 83 85 91 89 86 85
34 28 30 27 31 34 32 36 38 37 41 48 44 46 50 53 65 68 67 64 52 44 47 52 61 77 89 94 97 95 91 88
24 27 33 38 31 31 34 35 43 41 44 49 50 48 55 58 66 70 68 63 54 46 47 52 65 82 95 99 98 96 94 91

GFSFLT2_prec_cthk_132.txt.gz
RH
16 14 14 14 13 13 14 15 17 19 20 22 25 28 32 33 34 32 33 33 35 40 46 54 55 59 68 71 69 68 66 85
16 16 15 15 16 15 15 16 17 18 19 20 24 27 29 33 35 33 36 39 45 53 59 58 59 70 78 75 72 72 60 66
18 18 16 16 17 17 17 17 18 20 20 20 21 25 27 30 34 36 42 47 49 54 57 62 69 65 84 77 75 76 83 65
22 19 18 16 17 18 18 19 19 20 22 22 21 25 28 31 37 40 42 43 42 49 57 64 69 68 76 82 81 82 80 70
23 21 19 17 17 18 19 20 20 20 21 23 25 27 30 33 39 41 43 45 44 48 63 67 69 71 81 91 87 85 83 59
24 24 21 20 18 19 20 21 22 22 23 24 25 27 31 34 39 42 46 48 48 52 69 74 68 66 79 89 89 82 77 55
27 26 26 24 21 22 22 22 23 24 24 24 25 26 29 34 39 42 46 50 50 50 65 80 73 76 83 78 79 71 61 51
28 29 28 28 28 27 25 25 25 26 26 25 27 27 29 32 37 42 46 52 54 52 54 76 89 90 89 89 87 74 63 53
30 29 29 30 30 32 33 33 29 28 28 28 28 29 30 33 37 42 47 54 57 60 54 58 83 89 90 92 93 87 72 56
31 32 32 32 29 31 32 33 33 32 30 30 30 32 35 35 38 42 48 57 60 64 61 53 63 83 91 93 95 93 89 60
34 32 34 34 33 30 36 37 35 34 31 30 32 36 38 38 39 45 50 58 61 65 65 53 57 70 83 93 95 95 94 70
36 36 36 39 39 43 58 51 44 38 34 32 32 36 40 43 40 49 53 58 63 64 68 57 54 70 85 89 93 91 91 78
38 39 40 47 56 47 50 43 46 41 40 35 32 34 40 41 53 70 64 59 64 68 69 58 51 66 77 86 90 95 96 93
45 46 45 46 49 46 49 44 36 38 39 32 30 29 33 39 54 65 69 67 64 68 68 63 51 58 68 78 89 93 97 94
49 49 45 42 44 42 38 37 34 33 30 27 22 22 28 33 46 58 64 66 65 67 72 63 52 50 62 71 81 89 97 96
50 50 44 37 40 42 42 38 35 29 23 18 20 31 45 37 40 50 62 69 71 73 77 68 54 49 57 66 75 82 92 90
47 45 43 37 35 38 41 41 33 27 28 24 28 35 38 36 41 51 59 68 71 75 76 71 57 48 48 63 69 76 85 86
50 48 47 45 33 30 31 31 33 35 36 35 37 46 46 41 44 51 59 67 74 76 76 70 58 53 47 63 65 77 76 86
52 49 50 49 41 26 30 32 30 32 42 50 46 51 51 44 50 54 60 70 74 76 76 69 61 44 53 59 67 81 86 88
56 52 49 47 44 30 24 25 32 34 41 50 50 44 47 47 50 56 64 72 74 75 78 68 54 49 55 63 73 90 95 97

GFSFLT2_prec_cthk_135.txt.gz
RH
16 15 15 14 13 13 13 14 15 16 17 20 24 28 31 33 30 29 28 30 32 38 44 54 55 58 54 61 79 81 66 74
17 16 16 16 14 14 15 15 16 16 17 18 22 26 31 32 31 32 31 36 41 39 46 52 56 62 63 69 82 76 67 75
20 19 18 18 17 16 17 17 18 19 19 18 21 23 27 30 31 33 35 39 37 37 44 53 54 61 70 65 83 79 74 72
21 21 19 18 18 18 18 19 19 20 21 20 20 22 25 29 33 35 38 39 39 40 49 57 59 65 70 66 79 83 83 81
26 24 23 21 20 20 20 21 22 22 22 23 23 23 25 29 34 36 41 42 44 43 48 61 64 68 70 77 81 84 83 84
28 27 27 24 23 23 22 22 23 24 24 25 26 26 27 28 33 36 41 44 46 47 47 55 68 73 70 69 83 92 88 84
32 29 29 30 30 25 24 24 25 27 27 28 29 29 29 30 32 37 40 44 48 50 51 52 59 74 82 80 85 93 91 90
39 36 34 32 33 32 29 28 28 28 29 29 30 31 31 32 33 36 42 44 49 53 55 58 56 60 81 85 89 88 85 72
42 41 40 38 34 34 35 35 35 33 31 31 32 32 33 33 34 35 41 46 49 57 58 62 57 56 70 81 87 90 90 80
39 42 40 41 38 35 36 38 40 41 40 37 33 34 35 35 35 37 40 47 50 57 62 63 64 57 63 79 85 88 92 90
39 42 41 39 40 40 39 41 47 48 43 41 39 37 36 37 36 39 40 46 52 59 63 64 70 58 59 75 81 87 94 94
40 42 43 42 43 44 47 50 55 56 46 44 44 42 40 40 39 41 41 45 57 62 63 74 75 63 54 75 81 93 98 96
40 43 44 44 44 47 50 51 58 69 67 62 53 46 41 42 40 43 42 53 59 63 66 78 76 63 57 67 76 95 94 97
46 48 47 48 48 51 53 52 55 63 66 61 57 53 43 40 38 40 45 61 74 79 68 69 72 67 57 56 71 76 86 95
43 50 52 55 58 62 65 62 56 56 56 54 53 53 51 41 32 38 43 63 74 85 74 65 71 72 63 52 68 64 81 88
57 57 58 61 63 62 63 61 57 49 46 45 45 48 47 42 37 33 38 50 63 78 75 72 71 74 67 57 56 57 71 84
65 62 58 57 58 57 56 54 48 43 40 40 43 46 40 41 47 49 52 45 49 68 76 77 77 78 69 57 55 54 68 73
61 60 60 58 57 55 52 53 52 44 40 39 40 46 38 40 45 45 44 40 47 64 76 76 83 78 73 58 49 52 54 69
63 67 68 64 61 60 56 56 53 42 35 36 40 47 50 48 51 59 54 48 51 63 73 78 80 84 74 64 54 49 54 64
63 66 68 69 64 60 56 50 41 27 26 30 33 42 50 57 64 63 66 49 53 65 75 79 80 83 76 67 57 47 52 72

GFSFLT2_prec_cthk_138.txt.gz
RH
19 17 16 14 14 14 14 14 14 15 15 17 19 24 27 28 29 26 27 27 30 36 39 40 46 52 59 66 66 69 81 81
20 19 19 18 16 15 15 15 16 16 17 19 21 23 26 27 29 27 28 30 34 34 36 41 47 54 56 64 68 81 87 77
22 22 22 20 18 17 18 17 18 19 19 20 21 23 25 26 28 29 31 33 34 34 38 45 54 55 59 69 68 77 86 77
22 24 26 25 24 21 19 19 19 20 21 22 22 23 25 26 29 31 34 36 37 37 41 44 50 59 65 67 70 77 84 83
29 29 29 30 29 28 26 25 23 23 23 24 24 25 27 28 30 33 36 39 41 42 44 44 46 57 70 75 74 74 83 86
39 36 34 30 31 29 27 27 27 26 25 26 26 27 29 30 31 32 36 41 42 45 48 48 50 53 63 76 75 80 88 88
48 41 36 33 33 31 30 28 27 27 27 28 29 30 31 33 34 35 36 40 42 45 51 51 53 52 52 74 83 85 90 90
56 47 41 38 36 35 32 31 30 30 30 30 31 33 34 35 37 39 38 39 44 46 51 54 57 57 53 61 79 86 89 93
58 55 48 45 41 39 40 38 35 34 34 34 34 35 35 38 39 40 42 42 44 47 51 57 60 60 60 54 64 85 90 88
43 42 45 49 48 47 46 45 43 39 39 39 39 38 37 37 39 42 45 45 45 46 50 58 63 64 65 58 58 79 85 91
43 43 42 43 49 52 51 49 47 45 43 40 42 43 42 40 40 42 45 47 47 46 50 60 65 67 69 62 59 77 80 90
39 42 43 44 49 56 54 54 53 50 50 51 53 51 47 44 43 44 47 48 48 47 51 66 67 70 77 65 54 71 83 90
40 42 43 45 49 52 55 52 54 58 58 63 62 60 56 50 47 47 47 47 48 49 54 67 75 69 77 68 53 57 79 92
34 40 45 48 49 55 58 56 57 62 72 74 71 69 69 61 59 52 50 51 51 49 55 68 83 73 72 70 60 51 61 73
22 25 33 41 48 57 57 62 67 75 75 76 80 74 77 70 63 55 48 47 52 50 64 78 82 75 69 71 66 50 51 60
21 25 31 40 50 60 56 62 66 69 82 75 90 84 75 66 61 57 55 46 40 54 65 74 80 76 73 69 70 54 49 55
23 29 42 49 55 58 69 82 72 66 72 73 71 74 66 62 62 55 51 47 42 40 52 67 73 79 73 74 77 61 54 49
36 38 51 64 72 73 70 81 78 73 60 56 54 53 52 50 54 47 49 46 49 54 55 57 67 76 76 78 74 73 57 51
45 55 58 66 64 70 77 65 68 60 58 59 57 48 46 46 46 45 45 45 49 56 55 50 55 75 80 86 79 75 68 55
60 66 65 63 63 70 72 74 66 61 57 51 46 49 40 49 49 50 50 53 57 62 63 53 55 71 78 79 85 77 72 61

GFSFLT2_prec_cthk_141.txt.gz
RH
21 20 19 20 19 16 15 16 15 15 16 17 18 22 25 26 26 27 23 25 29 32 29 32 41 50 55 59 61 64 68 82
22 21 21 21 22 20 19 19 18 18 18 18 20 23 25 26 27 27 25 27 31 30 31 35 45 53 58 62 71 74 77 81
22 23 23 24 24 23 22 21 21 21 22 21 23 24 25 26 27 27 27 28 30 33 32 36 41 51 58 69 72 71 75 83
25 25 25 26 26 27 27 25 25 25 24 24 25 26 26 27 29 30 31 32 33 36 36 39 40 46 61 76 78 79 78 85
29 31 29 29 30 30 29 29 28 28 28 27 26 27 28 30 31 32 33 35 35 37 39 41 43 44 47 67 72 71 72 78
34 35 34 34 34 32 31 30 29 28 29 29 28 28 30 31 33 34 35 36 37 37 39 41 44 48 47 55 68 80 77 83
39 39 39 39 36 37 36 34 31 29 29 29 29 30 32 33 34 36 37 38 39 39 41 43 45 51 54 51 61 72 85 88
47 44 43 46 42 40 39 39 36 33 32 31 31 31 32 34 36 37 40 41 43 42 42 45 47 53 56 56 53 63 82 89
50 57 57 56 48 45 44 42 42 40 37 35 35 34 34 36 37 38 40 44 45 46 44 45 48 54 58 59 57 55 79 88
44 51 57 64 65 60 52 48 47 46 44 40 39 37 37 39 41 41 41 44 47 47 47 46 48 56 61 63 64 56 63 81
36 38 43 48 59 56 52 49 52 52 51 48 46 45 43 44 43 46 47 45 46 47 49 49 49 59 66 67 69 59 57 70
35 36 38 41 44 44 46 47 48 53 58 56 54 52 50 49 49 49 49 49 47 47 49 50 53 63 72 73 75 68 55 69
31 33 35 40 42 44 43 40 44 50 55 62 67 62 58 58 57 54 54 50 49 49 50 52 54 61 72 76 77 70 57 55
24 27 31 33 39 42 44 46 45 53 60 68 71 79 74 69 64 63 61 60 56 53 51 51 53 57 71 81 73 68 63 52
16 18 21 27 29 33 42 49 59 61 62 66 70 78 86 82 79 78 72 72 67 63 55 51 52 56 76 80 78 64 67 58
14 14 16 18 22 30 37 41 54 61 61 70 69 69 72 76 83 91 86 83 75 68 60 53 53 58 81 83 80 63 66 58
10 11 14 18 23 32 39 49 61 69 74 72 73 71 68 70 81 94 89 86 78 69 64 61 56 62 73 78 83 73 68 63
14 16 18 28 37 43 50 59 58 67 78 73 96 75 76 73 64 72 70 76 80 71 64 64 54 49 57 74 79 78 73 75
32 33 34 41 52 60 69 66 59 68 76 77 88 91 80 72 62 62 55 65 60 62 62 61 58 57 55 62 74 78 82 78
46 53 53 64 67 67 75 85 65 74 76 84 84 73 69 68 58 52 48 58 60 59 56 55 60 63 65 55 63 83 89 87

GFSFLT2_prec_cthk_147.txt.gz
RH
30 24 23 22 22 23 21 21 20 20 21 21 20 22 24 26 27 27 23 21 26 26 26 28 31 36 42 46 47 52 73 73
34 25 24 23 23 23 23 23 23 24 24 24 24 25 26 26 27 27 25 23 27 27 29 31 33 36 40 47 51 55 66 96
36 32 26 25 25 24 24 25 26 27 28 29 29 29 29 29 29 28 27 25 26 29 31 32 35 35 37 46 52 60 70 73
42 36 33 25 29 32 27 28 29 31 32 33 33 36 38 37 34 29 29 27 28 29 32 34 35 39 38 41 48 66 66 72
42 42 35 28 27 33 32 36 33 34 37 40 37 41 43 42 40 35 31 31 31 31 32 33 35 47 47 45 50 60 64 73
46 47 44 34 33 31 32 38 39 39 40 41 44 42 45 44 43 41 38 37 39 37 38 38 40 44 50 50 52 59 57 60
46 49 48 44 36 38 37 41 43 43 42 41 44 47 46 48 45 44 43 46 44 46 46 46 46 45 44 51 52 57 61 56
47 49 54 50 43 41 42 47 49 42 43 44 44 45 44 48 48 47 47 47 49 51 52 55 55 51 48 46 50 58 62 60
36 50 55 59 51 46 47 48 51 51 45 47 46 44 49 52 52 53 56 51 50 52 54 58 59 60 56 50 48 55 64 62
33 36 59 62 67 54 49 50 51 54 48 46 47 46 50 53 51 55 60 59 56 57 57 58 62 62 61 56 54 51 60 65
35 37 40 57 68 74 65 56 54 58 57 49 49 51 51 57 57 56 60 60 60 62 63 62 62 62 63 61 61 59 56 66
34 37 39 40 47 63 71 74 70 64 57 57 57 58 57 56 60 63 64 65 59 63 67 69 67 65 66 64 59 62 61 66
33 35 38 40 42 44 55 63 66 72 75 69 70 72 64 62 62 68 64 66 61 61 67 71 73 74 71 69 67 63 65 64
22 26 34 38 40 42 43 49 57 59 64 64 69 74 66 63 61 66 64 67 65 63 67 73 76 79 75 77 71 67 59 65
16 17 20 32 35 36 39 41 43 49 51 54 56 60 57 56 61 64 62 69 70 74 72 74 80 84 85 82 78 69 66 67
23 20 19 21 28 34 33 36 36 40 44 45 46 51 52 52 57 65 64 64 79 81 78 80 83 82 92 93 87 82 78 71
30 29 30 26 23 29 33 34 29 26 37 40 43 43 44 48 51 57 64 67 75 82 86 81 76 69 92 94 94 90 89 75
32 31 35 37 35 27 26 26 31 31 29 30 42 38 38 44 45 50 64 68 80 88 85 82 82 64 73 84 93 92 85 77
36 33 37 43 43 41 31 26 26 33 32 36 41 41 39 37 44 50 61 74 83 95 97 78 71 62 73 78 89 89 87 82
42 44 49 47 52 45 43 37 35 34 44 50 50 59 56 49 53 58 72 93 90 89 72 77 76 75 75 87 88 85 91 79